Home   Weather   Khon Kaen   Past weeks
Flag for Thailand

Past Weather in Khon Kaen, Thailand — Yesterday and Last 2 Weeks

Now
84 °F

Clear.


Feels Like: 90 °F
Forecast: 93 / 70 °F
Wind: 10 mph from Northeast

Location: Khon Kaen Airport

Current Time: Oct 21, 2019 at 9:30:40 am

Latest Report: Oct 21, 2019 at 9:00 am


Visibility: 4 mi

Pressure: 29.95 "Hg

Humidity: 66%

Dew Point: 72 °F

Location of Khon KaenLocation

Past Weather in Khon Kaen — Graph

°F

Khon Kaen Temperature Yesterday

Maximum temperature yesterday: 91 °F (at 1:00 pm)
Minimum temperature yesterday: 72 °F (at 4:00 am)
Average temperature yesterday: 82 °F

High & Low Weather Summary for the Past Weeks

 TemperatureHumidityPressure
High95 °F (Oct 11, 2:00 pm)100% (Oct 7, 4:00 am)30.04 "Hg (Oct 7, 4:00 am)
Low70 °F (Oct 14, 5:00 am)44% (Oct 13, 2:00 pm)29.62 "Hg (Oct 14, 5:00 am)
Average82 °F74%29.90 "Hg
* Reported Oct 6 8:00 am — Oct 21 8:00 am, Khon Kaen. Weather by CustomWeather, © 2019

Note: Actual official high and low records may vary slightly from our data, if they occured in-between our weather recording intervals... More about our weather records

Advertising

Khon Kaen Weather History for the Previous 24 Hours

Scroll right to see more
 ConditionsComfort  
Time TempWeatherWind HumidityBarometerVisibility
8:00 am
Mon, Oct 21
82 °FClear.6 mph66%29.95 "Hg4 mi
7:00 am75 °FClear.3 mph83%29.92 "Hg4 mi
6:00 am72 °FClear.3 mph94%29.89 "Hg5 mi
5:00 am72 °FClear.1 mph94%29.92 "Hg4 mi
4:00 am73 °FClear.5 mph89%29.89 "Hg5 mi
3:00 am75 °FClear.5 mph83%29.86 "Hg5 mi
2:00 am75 °FClear.5 mph83%29.89 "Hg6 mi
1:00 am77 °FClear.8 mph79%29.89 "Hg6 mi
12:00 am77 °FClear.6 mph79%29.89 "Hg6 mi
11:00 pm
Sun, Oct 20
77 °FClear.6 mph79%29.89 "Hg6 mi
10:00 pm79 °FClear.6 mph74%29.92 "Hg6 mi
9:00 pm81 °FClear.6 mph74%29.92 "Hg6 mi
8:00 pm82 °FClear.7 mph66%29.89 "Hg6 mi
7:00 pm84 °FClear.7 mph62%29.89 "Hg6 mi
6:00 pm86 °FPassing clouds.5 mph59%29.86 "HgN/A
5:00 pm91 °FScattered clouds.3 mph52%29.86 "HgN/A
4:00 pm91 °FScattered clouds.6 mph49%29.86 "HgN/A
3:00 pm91 °FScattered clouds.6 mph52%29.86 "HgN/A
2:00 pm91 °FScattered clouds.7 mph52%29.89 "HgN/A
1:00 pm91 °FScattered clouds.8 mph52%29.92 "HgN/A
12:00 pm90 °FScattered clouds.6 mph55%29.95 "HgN/A
11:00 am88 °FScattered clouds.9 mph55%29.98 "HgN/A
10:00 am84 °FPassing clouds.10 mph66%30.01 "HgN/A
9:00 am84 °FPassing clouds.6 mph62%30.04 "HgN/A
Weather by CustomWeather, © 2019

See weather overview